Bullsbrook Pearce, Western Australia

12:01 PM AWST on September 29, 2016 (GMT +0800)
Pearce (Military)

Weather History for YPEA - January, 2014

Change the Weather History Date:

Thursday, January 16, 2014

  Actual Average (YPPH) Record (YPPH)
Temperature  
Mean Temperature 71 °F -  
Max Temperature 81 °F 85 °F 107 °F (2009)
Min Temperature 61 °F 61 °F 44 °F (2007)
Cooling Degree Days 6    
Growing Degree Days 21 (Base 50)    
Moisture  
Dew Point 51 °F    
Average Humidity 52    
Maximum Humidity 83    
Minimum Humidity 21    
Precipitation  
Precipitation 0.00 in - - ()
Sea Level Pressure  
Sea Level Pressure 29.87 in    
Wind  
Wind Speed 8 mph ()    
Max Wind Speed 20 mph    
Max Gust Speed 29 mph    
Visibility 7.4 miles    
Events      
Averages and records for this station are not official NWS values.
T = Trace of Precipitation, MM = Missing Value Source: Averaged Metar Reports

Daily Weather History Graph

Daily Weather History Graph

Search for Another Location

Airport or City:

Trip Planner

Search our weather history database for the weather conditions in past years. The results will help you decide how hot, cold, wet, or windy it might be!

Date:

Astronomy

Jan. 16, 2014 Rise Set
Actual Time 5:26 AM AWST 7:24 PM AWST
Civil Twilight 4:58 AM AWST 7:51 PM AWST
Nautical Twilight 4:25 AM AWST 8:24 PM AWST
Astronomical Twilight 3:50 AM AWST 9:00 PM AWST
Moon 7:12 PM AWST (1/16) 5:24 AM AWST (1/16)
Length of Visible Light 14h 52m
Length of Day
13h 58m
Full, 100% of the Moon is Illuminated
Jan 16
Full
Jan 16
Full
Jan 24
Last Quarter
Jan 31
New
Feb 7
First Quarter

Hourly Weather History & Observations

Time (AWST) Temp. Dew Point Humidity Pressure Visibility Wind Dir Wind Speed Gust Speed Precip Events Conditions
12:00 AM 67 °F 61 °F 75% 29.81 in - SW 6.9 mph - -   Overcast
12:00 AM 66.2 °F 60.8 °F 83% 29.80 in 6.2 mi SW 6.9 mph - N/A   Overcast
1:00 AM 66.2 °F 57.2 °F 73% 29.80 in 6.2 mi SW 9.2 mph - N/A   Mostly Cloudy
2:00 AM 64.4 °F 55.4 °F 73% 29.80 in 6.2 mi West 4.6 mph - N/A   Overcast
3:00 AM 62 °F 54 °F 67% 29.81 in - West 2.3 mph - -  
3:00 AM 62.6 °F 53.6 °F 72% 29.80 in 6.2 mi West 2.3 mph - N/A   Unknown
4:00 AM 62.6 °F 53.6 °F 72% 29.80 in 6.2 mi NNW 2.3 mph - N/A   Overcast
5:00 AM 62.6 °F 51.8 °F 68% 29.83 in 6.2 mi WNW 1.2 mph - N/A   Overcast
6:00 AM 63 °F 53 °F 62% 29.86 in - Calm Calm - -   Overcast
6:00 AM 62.6 °F 53.6 °F 72% 29.86 in 6.2 mi Calm Calm - N/A   Scattered Clouds
7:00 AM 68.0 °F 53.6 °F 60% 29.89 in 6.2 mi South 1.2 mph - N/A   Partly Cloudy
8:00 AM 71.6 °F 50.0 °F 46% 29.89 in 6.2 mi South 8.1 mph - N/A   Unknown
9:00 AM 74 °F 53 °F 37% 29.91 in 19 mi South 12.7 mph - -   Partly Cloudy
9:00 AM 73.4 °F 53.6 °F 50% 29.89 in - South 12.7 mph - N/A   Clear
10:00 AM 73.4 °F 48.2 °F 41% 29.89 in - SSE 10.4 mph - N/A   Clear
11:00 AM 77.0 °F 50.0 °F 39% 29.89 in 6.2 mi South 15.0 mph - N/A   Mostly Cloudy
12:00 PM 78 °F 46 °F 21% 29.88 in - South 16.1 mph - -  
12:00 PM 77.0 °F 46.4 °F 34% 29.89 in - South 16.1 mph - N/A   Clear
1:00 PM 78.8 °F 46.4 °F 32% 29.86 in - South 15.0 mph - N/A   Clear
2:00 PM 78.8 °F 48.2 °F 34% 29.89 in - WSW 19.6 mph - N/A   Clear
3:00 PM 78 °F 50 °F 27% 29.88 in 19 mi SW 17.3 mph - -   Partly Cloudy
3:00 PM 78.8 °F 50.0 °F 36% 29.86 in 6.2 mi SW 17.3 mph - N/A   Unknown
4:00 PM 77.0 °F 50.0 °F 39% 29.86 in 6.2 mi SW 17.3 mph - N/A   Unknown
5:00 PM 75.2 °F 48.2 °F 38% 29.86 in 6.2 mi SW 16.1 mph - N/A   Unknown
5:03 PM 75.2 °F 48.2 °F 38% 29.86 in 6.2 mi SSW 17.3 mph 28.8 mph N/A   Unknown
6:00 PM 72 °F 48 °F 32% 29.87 in - SW 16.1 mph - -  
6:00 PM 71.6 °F 48.2 °F 43% 29.86 in 6.2 mi SW 16.1 mph - N/A   Unknown
7:00 PM 69.8 °F 50.0 °F 49% 29.89 in 6.2 mi SSW 12.7 mph - N/A   Unknown
8:00 PM 66.2 °F 50.0 °F 56% 29.89 in 6.2 mi SSW 11.5 mph - N/A   Unknown
9:00 PM 65 °F 51 °F 50% 29.91 in - SSW 10.4 mph - -  
9:00 PM 64.4 °F 51.8 °F 64% 29.92 in 6.2 mi SSW 10.4 mph - N/A   Unknown
10:00 PM 64.4 °F 51.8 °F 64% 29.92 in 6.2 mi South 10.4 mph - N/A   Unknown
11:00 PM 62.6 °F 51.8 °F 68% 29.92 in 6.2 mi South 6.9 mph - N/A   Unknown